[[{"header":{"parameterUnit":"m.s-1","parameterCategory":2,"la1":30.2992,"la2":30.254,"lo1":-89.0895,"lo2":-89.0443,"dy":0.0025,"dx":0.0025,"nx":19,"ny":19,"refTime":"2026-05-16T03:00:00:Z","depth":"0","parameterNumber":2,"parameterNumberName":"U-component_of_CURRENTS"},"data":[0,0,0,0.4606,0.4608,0.4721,0.4721,0.4896,0.4898,0,0,0,0,0,0,0,0,0,0,0,0.4574,0.4575,0.4605,0.4608,0.4721,0.4721,0.4896,0.4898,0,0,0,0,0,0,0,0,0,0,0,0.4574,0.4575,0.4576,0.4608,0.472,0.4721,0.4896,0.4804,0,0,0,0,0,0,0,0,0,0,0.4691,0.4644,0.4574,0.4576,0.4609,0.472,0.4721,0.4799,0.481,0.4852,0,0.4875,0,0.4887,0.491,0.491,0,0,0,0.4613,0.4635,0.4676,0.4576,0.461,0.472,0.4671,0.4805,0.4817,0.4866,0.4878,0.4884,0.489,0.4911,0.4912,0.5136,0.5137,0,0,0.4607,0.4586,0.4668,0.4684,0.4648,0.4668,0.4675,0.4812,0.4822,0.4878,0.4888,0.4893,0.4912,0.4913,0.5135,0.5137,0,0,0,0.4586,0.4581,0.4618,0.4677,0.4693,0.4671,0.4679,0.4816,0.4832,0.489,0.4895,0.4913,0.4915,0.5134,0.5136,0.5201,0,0,0,0.4582,0.4569,0.4615,0.4603,0.469,0.4749,0.468,0.4822,0.4838,0.4894,0.4913,0.4917,0.5133,0.5135,0.5196,0.5271,0,0,0,0.4567,0.4567,0.4585,0.4602,0.4648,0.4747,0.477,0.4826,0.4841,0.4911,0.4918,0.5132,0.5134,0.5192,0.5263,0.5456,0,0,0,0.4535,0.4575,0.4584,0.4641,0.4647,0.477,0.4769,0.4853,0.4915,0.4914,0.5133,0.5136,0.5191,0.5258,0.5449,0.535,0.5375,0,0,0.4568,0.4578,0.4615,0.4627,0.4729,0.4754,0.4885,0.4949,0.4972,0.5088,0.5093,0.5198,0.5262,0.5454,0.5503,0.5524,0,0,0,0.4616,0.4635,0.4678,0.473,0.4818,0.4925,0.4975,0.5029,0.5137,0.5021,0.5234,0.5275,0.5393,0.5319,0.5336,0.5046,0.5148,0.5148,0.5147,0.4588,0.4646,0.4716,0.4807,0.49,0.5039,0.5158,0.5243,0.5219,0.5283,0.5352,0.5579,0.5496,0.5509,0.521,0.5356,0.5356,0.5357,0.5357,0.4606,0.4633,0.4734,0.4819,0.4956,0.5079,0.5316,0.5357,0.5583,0.5469,0.5581,0.5419,0.5532,0.5206,0.5361,0.5361,0.536,0.536,0.5359,0.4541,0.457,0.4629,0.4773,0.4944,0.5133,0.5389,0.555,0.5675,0.5798,0.5777,0.5773,0.5475,0.5858,0.5859,0.5861,0.5862,0.5862,0.5863,0.4439,0.4514,0.4593,0.4766,0.4875,0.5106,0.5466,0.5658,0.5872,0.5903,0.5902,0.5512,0.5735,0.5702,0.5881,0.5878,0.5876,0.5874,0.5873,0.4378,0.4435,0.4543,0.4643,0.4909,0.5045,0.5419,0.5746,0.5994,0.6077,0.5672,0.5985,0.5988,0.5969,0.5944,0.6177,0.6177,0.6177,0.6177,0.433,0.4375,0.4501,0.4645,0.4838,0.5024,0.5157,0.5414,0.5605,0.5568,0.5635,0.5386,0.5386,0.534,0.5336,0.5291,0.5354,0.5353,0.5351,0.432,0.4367,0.4424,0.458,0.4783,0.4915,0.4859,0.4761,0.5025,0.529,0.5261,0.5296,0.4897,0.4921,0.4812,0.483,0.4745,0,0]},{"header":{"parameterUnit":"m.s-1","parameterCategory":2,"la1":30.2992,"la2":30.254,"lo1":-89.0895,"lo2":-89.0443,"dy":0.0025,"dx":0.0025,"nx":19,"ny":19,"refTime":"2026-05-16T03:00:00:Z","depth":"0","parameterNumber":3,"parameterNumberName":"V-component_of_CURRENTS"},"data":[0,0,0,0.0397,0.0396,0.0357,0.0356,0.0285,0.0284,0,0,0,0,0,0,0,0,0,0,0,0.041,0.041,0.0397,0.0396,0.0357,0.0356,0.0285,0.0284,0,0,0,0,0,0,0,0,0,0,0,0.041,0.041,0.0411,0.0396,0.0357,0.0356,0.0285,0.0317,0,0,0,0,0,0,0,0,0,0,0.0357,0.0379,0.041,0.0411,0.0396,0.0357,0.0356,0.0319,0.0315,0.0301,0,0.0304,0,0.0297,0.028,0.028,0,0,0,0.0384,0.0382,0.0372,0.0411,0.0396,0.0357,0.0371,0.0317,0.0313,0.0296,0.0303,0.03,0.0296,0.028,0.028,0.0347,0.0349,0,0,0.0386,0.0399,0.0375,0.037,0.0397,0.0372,0.037,0.0314,0.0314,0.0302,0.0298,0.0295,0.028,0.0279,0.0346,0.0348,0,0,0,0.04,0.0401,0.0392,0.0373,0.037,0.0372,0.0369,0.0316,0.0314,0.0298,0.0294,0.0279,0.0278,0.0345,0.0347,0.051,0,0,0,0.0401,0.041,0.0393,0.04,0.0372,0.0346,0.0372,0.0318,0.0312,0.0294,0.0279,0.0278,0.0344,0.0346,0.0503,0.0636,0,0,0,0.041,0.0411,0.041,0.0401,0.0389,0.0347,0.0341,0.0316,0.031,0.028,0.0278,0.0343,0.0345,0.0496,0.0622,0.0791,0,0,0,0.0419,0.0463,0.041,0.0466,0.039,0.0438,0.0341,0.0352,0.0338,0.0279,0.0344,0.0347,0.0494,0.0614,0.0782,0.0958,0.1015,0,0,0.0489,0.0472,0.051,0.0463,0.0539,0.0442,0.0526,0.045,0.0377,0.0354,0.0356,0.0505,0.0621,0.0789,0.1122,0.1176,0,0,0,0.0544,0.0571,0.0586,0.0612,0.0613,0.0638,0.0558,0.0544,0.053,0.0383,0.0518,0.0588,0.0688,0.0773,0.0816,0.0504,0.036,0.036,0.0359,0.0641,0.0656,0.0733,0.075,0.078,0.0771,0.0803,0.0768,0.065,0.0682,0.0727,0.0984,0.1074,0.1109,0.0783,0.0701,0.0702,0.0702,0.0703,0.0773,0.0829,0.0848,0.0928,0.0947,0.101,0.1035,0.0987,0.1076,0.0913,0.1001,0.095,0.1166,0.0801,0.0714,0.0712,0.071,0.0709,0.0709,0.0842,0.0878,0.0914,0.1035,0.115,0.118,0.1383,0.1337,0.1276,0.1356,0.1449,0.1447,0.1125,0.1391,0.1392,0.1394,0.1395,0.1396,0.1397,0.0901,0.0944,0.1055,0.1171,0.1277,0.145,0.1606,0.1718,0.1787,0.1708,0.1708,0.1198,0.1195,0.1167,0.1418,0.1414,0.1411,0.1409,0.1408,0.1014,0.1028,0.1199,0.1309,0.1584,0.1884,0.2003,0.2298,0.2344,0.2425,0.1729,0.1892,0.1878,0.1842,0.183,0.2238,0.2238,0.2238,0.2238,0.1086,0.1108,0.1353,0.1566,0.1844,0.2095,0.262,0.2798,0.2458,0.2166,0.1887,0.1677,0.1657,0.1611,0.158,0.1554,0.1883,0.1881,0.188,0.1179,0.1239,0.1435,0.1643,0.1967,0.2373,0.2923,0.3167,0.2452,0.1818,0.1419,0.1435,0.106,0.1055,0.0918,0.09,0.0833,0,0]}],[{"header":{"parameterUnit":"m.s-1","parameterCategory":2,"la1":30.2992,"la2":30.254,"lo1":-89.0895,"lo2":-89.0443,"dy":0.0025,"dx":0.0025,"nx":19,"ny":19,"refTime":"2026-05-16T03:00:00:Z","depth":"2","parameterNumber":2,"parameterNumberName":"U-component_of_CURRENTS"},"data":[0,0,0,0.3608,0.3612,0.3747,0.3748,0.3878,0.3879,0,0,0,0,0,0,0,0,0,0,0,0.3544,0.3545,0.3608,0.3612,0.3747,0.3748,0.3878,0.3879,0,0,0,0,0,0,0,0,0,0,0,0.3544,0.3545,0.3546,0.3612,0.3747,0.3748,0.3878,0.3783,0,0,0,0,0,0,0,0,0,0,0.3655,0.3624,0.3545,0.3546,0.3613,0.3747,0.3748,0.3779,0.3789,0.3809,0,0.3831,0,0.3872,0.3888,0.3889,0,0,0,0.3599,0.3615,0.3641,0.3546,0.3615,0.3747,0.3682,0.3784,0.3796,0.3822,0.3833,0.3839,0.3874,0.3889,0.389,0.4097,0.4098,0,0,0.3591,0.358,0.3633,0.3648,0.3652,0.3678,0.3687,0.3792,0.381,0.3833,0.3843,0.3876,0.389,0.3891,0.4096,0.4097,0,0,0,0.3579,0.3575,0.3599,0.3642,0.3678,0.3682,0.3692,0.3805,0.381,0.3844,0.3878,0.3891,0.3892,0.4094,0.4096,0.4151,0,0,0,0.3574,0.3569,0.3595,0.3592,0.3676,0.3756,0.3703,0.3802,0.3816,0.3877,0.3891,0.3894,0.4093,0.4095,0.4146,0.4189,0,0,0,0.3538,0.3566,0.3579,0.3591,0.3656,0.3755,0.3766,0.3806,0.3837,0.3889,0.3894,0.4092,0.4095,0.4142,0.4182,0.4342,0,0,0,0.3524,0.3546,0.3579,0.3638,0.3655,0.3748,0.3766,0.3858,0.3908,0.3891,0.4093,0.4096,0.4141,0.4178,0.4335,0.4152,0.4166,0,0,0.3536,0.3547,0.3586,0.3619,0.3686,0.3728,0.3847,0.3926,0.3961,0.4049,0.4055,0.4148,0.4182,0.434,0.4326,0.4334,0,0,0,0.3582,0.359,0.3625,0.3681,0.3757,0.3853,0.3926,0.3985,0.4109,0.4008,0.4194,0.4215,0.4313,0.419,0.4198,0.411,0.411,0.411,0.4109,0.3553,0.3601,0.3658,0.3724,0.3797,0.3947,0.4057,0.4158,0.416,0.4246,0.4293,0.4497,0.4364,0.4368,0.4321,0.4322,0.4322,0.4322,0.4322,0.355,0.3578,0.3667,0.3731,0.3854,0.3968,0.418,0.4252,0.4466,0.4396,0.4489,0.4293,0.4379,0.4327,0.4326,0.4326,0.4325,0.4325,0.4324,0.3513,0.3525,0.3591,0.3697,0.3854,0.4028,0.4233,0.4415,0.4539,0.4647,0.4583,0.4579,0.4551,0.4721,0.4722,0.4723,0.4724,0.4724,0.4725,0.343,0.3489,0.3535,0.3682,0.378,0.3982,0.431,0.4464,0.4646,0.4668,0.4667,0.4633,0.462,0.4578,0.4739,0.4736,0.4735,0.4733,0.4732,0.3339,0.3393,0.3451,0.353,0.3736,0.3788,0.4149,0.4388,0.4633,0.4668,0.4697,0.4693,0.468,0.4669,0.463,0.4796,0.4796,0.4796,0.4796,0.3277,0.3309,0.3363,0.3447,0.3539,0.3692,0.37,0.3889,0.4238,0.4324,0.4343,0.4135,0.4144,0.409,0.4092,0.4037,0.4049,0.4047,0.4046,0.3224,0.3265,0.3274,0.3369,0.342,0.348,0.3312,0.3244,0.3572,0.401,0.4145,0.4759,0.4498,0.4495,0.4442,0.4435,0.4358,0,0]},{"header":{"parameterUnit":"m.s-1","parameterCategory":2,"la1":30.2992,"la2":30.254,"lo1":-89.0895,"lo2":-89.0443,"dy":0.0025,"dx":0.0025,"nx":19,"ny":19,"refTime":"2026-05-16T03:00:00:Z","depth":"2","parameterNumber":3,"parameterNumberName":"V-component_of_CURRENTS"},"data":[0,0,0,0.0207,0.0207,0.0166,0.0165,0.0073,0.0072,0,0,0,0,0,0,0,0,0,0,0,0.0217,0.0217,0.0207,0.0207,0.0166,0.0165,0.0073,0.0072,0,0,0,0,0,0,0,0,0,0,0,0.0217,0.0217,0.0217,0.0207,0.0166,0.0165,0.0073,0.011,0,0,0,0,0,0,0,0,0,0,0.0153,0.0177,0.0217,0.0217,0.0207,0.0166,0.0165,0.0112,0.0108,0.0086,0,0.0089,0,0.0087,0.0067,0.0067,0,0,0,0.019,0.0181,0.0171,0.0217,0.0206,0.0166,0.0179,0.011,0.0105,0.008,0.0087,0.0084,0.0085,0.0066,0.0066,0.0094,0.0094,0,0,0.0192,0.0204,0.0175,0.0168,0.0207,0.0181,0.0178,0.0107,0.0105,0.0087,0.0082,0.0084,0.0066,0.0065,0.0093,0.0094,0,0,0,0.021,0.0206,0.0198,0.0172,0.0172,0.018,0.0177,0.0108,0.0106,0.0081,0.0083,0.0065,0.0064,0.0092,0.0093,0.0228,0,0,0,0.021,0.0218,0.0199,0.0205,0.0174,0.0147,0.018,0.0111,0.0103,0.0083,0.0065,0.0064,0.0091,0.0092,0.0222,0.0322,0,0,0,0.0217,0.0218,0.0217,0.0206,0.0196,0.0148,0.0141,0.0109,0.0105,0.0067,0.0063,0.009,0.0092,0.0217,0.0311,0.0422,0,0,0,0.0224,0.0257,0.0218,0.0262,0.0197,0.0226,0.0142,0.0141,0.0119,0.0065,0.0091,0.0093,0.0215,0.0305,0.0415,0.0487,0.0525,0,0,0.0277,0.0264,0.0295,0.0259,0.032,0.023,0.0291,0.0215,0.0144,0.0105,0.0106,0.0224,0.031,0.0421,0.0613,0.0647,0,0,0,0.0321,0.0345,0.0355,0.0379,0.0372,0.0386,0.0307,0.0282,0.025,0.0143,0.0231,0.0282,0.0347,0.0375,0.0403,0.0103,0.0103,0.0103,0.0103,0.0407,0.0417,0.0486,0.0497,0.0509,0.049,0.0502,0.0453,0.0347,0.0361,0.0395,0.0581,0.0611,0.0633,0.0376,0.0376,0.0377,0.0377,0.0378,0.052,0.0572,0.0589,0.0654,0.0662,0.0703,0.0689,0.0638,0.0661,0.0533,0.0589,0.052,0.0672,0.0389,0.0386,0.0385,0.0384,0.0383,0.0382,0.0585,0.0617,0.0651,0.0757,0.0855,0.0865,0.1023,0.0946,0.0828,0.0872,0.0885,0.0882,0.0686,0.0889,0.089,0.0891,0.0892,0.0892,0.0893,0.0636,0.0678,0.0783,0.0886,0.0992,0.1143,0.1229,0.1274,0.1214,0.108,0.108,0.0755,0.0738,0.0717,0.0908,0.0905,0.0903,0.0902,0.0901,0.0727,0.0748,0.0914,0.1026,0.1302,0.1567,0.1609,0.1696,0.1657,0.1629,0.1193,0.1181,0.1155,0.113,0.1119,0.1403,0.1403,0.1403,0.1403,0.0794,0.0814,0.1063,0.1288,0.157,0.1779,0.2079,0.1997,0.1743,0.1507,0.1502,0.1377,0.1355,0.133,0.1301,0.1288,0.1617,0.1617,0.1617,0.0879,0.0944,0.1146,0.137,0.1704,0.2044,0.23,0.2165,0.1735,0.162,0.1479,0.1429,0.1224,0.1199,0.1132,0.1097,0.1063,0,0]}],[{"header":{"parameterUnit":"m.s-1","parameterCategory":2,"la1":30.2992,"la2":30.254,"lo1":-89.0895,"lo2":-89.0443,"dy":0.0025,"dx":0.0025,"nx":19,"ny":19,"refTime":"2026-05-16T03:00:00:Z","depth":"4","parameterNumber":2,"parameterNumberName":"U-component_of_CURRENTS"},"data":[0,0,0,0.2231,0.2235,0.2446,0.2447,0.2581,0.2582,0,0,0,0,0,0,0,0,0,0,0,0.2164,0.2166,0.223,0.2236,0.2446,0.2447,0.2581,0.2582,0,0,0,0,0,0,0,0,0,0,0,0.2164,0.2166,0.2168,0.2237,0.2446,0.2447,0.2581,0.2455,0,0,0,0,0,0,0,0,0,0,0.2267,0.2237,0.2165,0.2168,0.2238,0.2446,0.2447,0.245,0.2462,0.2448,0,0.2498,0,0.2539,0.2588,0.2588,0,0,0,0.2233,0.2228,0.2273,0.2168,0.224,0.2445,0.2351,0.2458,0.2472,0.2463,0.25,0.2506,0.2542,0.2588,0.2589,0.2742,0.2743,0,0,0.2222,0.2208,0.2264,0.2282,0.2315,0.2344,0.2357,0.2468,0.2494,0.2501,0.251,0.2544,0.2589,0.259,0.2741,0.2742,0,0,0,0.219,0.22,0.2246,0.2275,0.2323,0.235,0.2365,0.249,0.2503,0.2512,0.2545,0.259,0.2591,0.274,0.2741,0.281,0,0,0,0.2183,0.2182,0.2241,0.2236,0.2322,0.2431,0.2384,0.2496,0.251,0.2545,0.259,0.2592,0.2739,0.2741,0.2806,0.2823,0,0,0,0.2151,0.2178,0.2207,0.2234,0.2325,0.243,0.2452,0.25,0.2529,0.2588,0.2592,0.2738,0.274,0.2802,0.2817,0.2907,0,0,0,0.2122,0.2159,0.2207,0.2261,0.2323,0.242,0.2452,0.254,0.2593,0.259,0.2739,0.2741,0.2801,0.2814,0.2903,0.2524,0,0,0,0.2136,0.2162,0.2187,0.2233,0.2315,0.239,0.2499,0.2587,0.2624,0.2689,0.2695,0.2807,0.2817,0.2906,0.2666,0,0,0,0,0.2167,0.2194,0.2225,0.2297,0.2371,0.2483,0.2574,0.2637,0.2765,0.267,0.2836,0.284,0.2894,0.2662,0.2753,0.2752,0.2752,0.2752,0.2752,0.217,0.2206,0.2249,0.232,0.2402,0.2558,0.2659,0.2769,0.2791,0.2879,0.2918,0.306,0.2818,0.295,0.295,0.295,0.2951,0.2951,0.2951,0.2157,0.215,0.2255,0.2312,0.2442,0.2562,0.2765,0.2848,0.303,0.301,0.306,0.2776,0.2959,0.2957,0.2956,0.2955,0.2955,0.2954,0.2954,0.2092,0.2085,0.2164,0.2261,0.2415,0.2593,0.2757,0.2945,0.309,0.3168,0.2961,0.3124,0.3094,0.3227,0.3227,0.3228,0.3228,0.3228,0.3229,0.1963,0.2032,0.2058,0.2203,0.2282,0.247,0.2783,0.2904,0.3106,0.3002,0.3217,0.3153,0.3144,0.3112,0.3237,0.3235,0.3234,0.3233,0.3233,0.1825,0.1881,0.1898,0.196,0.2114,0.223,0.2581,0.2774,0.2888,0.2903,0.2914,0.2927,0.2872,0.287,0.2825,0.287,0.2866,0.2861,0,0.1716,0.1744,0.1737,0.1756,0.1814,0.2055,0.215,0.2375,0.2591,0.2487,0.287,0.2871,0.2881,0.2806,0.2799,0.2737,0,0,0,0.1627,0.1639,0.1582,0.1607,0.1643,0.1849,0.2157,0.2167,0.255,0.2595,0.2751,0.278,0.3044,0.326,0.3208,0.3197,0.3143,0,0]},{"header":{"parameterUnit":"m.s-1","parameterCategory":2,"la1":30.2992,"la2":30.254,"lo1":-89.0895,"lo2":-89.0443,"dy":0.0025,"dx":0.0025,"nx":19,"ny":19,"refTime":"2026-05-16T03:00:00:Z","depth":"4","parameterNumber":3,"parameterNumberName":"V-component_of_CURRENTS"},"data":[0,0,0,0.0154,0.0154,0.0129,0.0129,0.006,0.0059,0,0,0,0,0,0,0,0,0,0,0,0.016,0.016,0.0154,0.0154,0.0129,0.0129,0.006,0.0059,0,0,0,0,0,0,0,0,0,0,0,0.016,0.016,0.016,0.0154,0.0129,0.0129,0.006,0.0085,0,0,0,0,0,0,0,0,0,0,0.0113,0.013,0.016,0.016,0.0154,0.0129,0.0128,0.0087,0.0084,0.0065,0,0.0068,0,0.0068,0.0055,0.0055,0,0,0,0.0142,0.0133,0.0127,0.016,0.0154,0.0129,0.0137,0.0085,0.0082,0.006,0.0068,0.0065,0.0067,0.0055,0.0054,0.0057,0.0058,0,0,0.0143,0.0151,0.013,0.0125,0.0156,0.0138,0.0136,0.0083,0.0082,0.0067,0.0064,0.0066,0.0054,0.0054,0.0057,0.0057,0,0,0,0.0155,0.0152,0.0148,0.0128,0.0129,0.0137,0.0135,0.0084,0.0084,0.0063,0.0065,0.0054,0.0053,0.0056,0.0057,0.0167,0,0,0,0.0155,0.016,0.0149,0.0153,0.0131,0.0112,0.0137,0.0087,0.0081,0.0065,0.0054,0.0052,0.0055,0.0056,0.0163,0.0236,0,0,0,0.016,0.016,0.0161,0.0153,0.0148,0.0113,0.0109,0.0086,0.0083,0.0055,0.0052,0.0055,0.0056,0.0159,0.0228,0.0261,0,0,0,0.0163,0.0186,0.0161,0.0193,0.0149,0.0172,0.0109,0.0109,0.0093,0.0053,0.0056,0.0057,0.0158,0.0224,0.0256,0.0281,0,0,0,0.0198,0.019,0.0212,0.019,0.0239,0.0174,0.0217,0.0161,0.0103,0.0066,0.0067,0.0165,0.0228,0.026,0.0352,0,0,0,0,0.0229,0.0248,0.0257,0.0279,0.0276,0.0291,0.0231,0.0205,0.0175,0.0101,0.0158,0.0195,0.0211,0.0213,0.0063,0.0063,0.0062,0.0062,0.0062,0.0288,0.03,0.0353,0.0369,0.0382,0.0367,0.0366,0.0319,0.0245,0.0248,0.028,0.0377,0.0382,0.0258,0.0259,0.0259,0.026,0.026,0.026,0.0369,0.0408,0.0434,0.0489,0.0503,0.0535,0.0507,0.0463,0.0446,0.0373,0.0382,0.0323,0.0271,0.0269,0.0267,0.0266,0.0265,0.0264,0.0264,0.0411,0.0435,0.0473,0.0569,0.0656,0.0666,0.0748,0.0682,0.0572,0.0585,0.0548,0.045,0.0446,0.0576,0.0577,0.0577,0.0578,0.0578,0.0578,0.0434,0.0478,0.0567,0.0668,0.076,0.087,0.0895,0.0875,0.0764,0.0696,0.062,0.0483,0.0472,0.0463,0.0586,0.0584,0.0583,0.0583,0.0582,0.0485,0.0513,0.0647,0.0746,0.0966,0.105,0.108,0.1008,0.0978,0.0896,0.0731,0.0721,0.0682,0.0667,0.0662,0.0849,0.0849,0.085,0,0.0522,0.0544,0.0735,0.091,0.1092,0.1166,0.1188,0.1145,0.0974,0.0956,0.0945,0.0762,0.0752,0.0708,0.0696,0.0693,0,0,0,0.0575,0.0625,0.0766,0.0939,0.1152,0.1192,0.1199,0.1153,0.101,0.0973,0.0871,0.0865,0.0747,0.0608,0.0524,0.0511,0.0492,0,0]}]]